TimeEST,TemperatureF,Dew PointF,Humidity,Sea Level PressureIn,VisibilityMPH,Wind Direction,Wind SpeedMPH,Gust SpeedMPH,PrecipitationIn,Events,Conditions,WindDirDegrees,DateUTC
1:58 AM,42.1,36.0,79,30.40,10.0,NE,5.8,-,N/A,,Clear,40,2013-01-08 06:58:00
2:58 AM,42.1,36.0,79,30.39,10.0,NE,4.6,-,N/A,,Clear,40,2013-01-08 07:58:00
3:58 AM,42.1,37.0,82,30.38,10.0,NNE,6.9,-,N/A,,Clear,30,2013-01-08 08:58:00
4:58 AM,42.1,37.0,82,30.39,10.0,NE,9.2,-,N/A,,Clear,50,2013-01-08 09:58:00
5:58 AM,44.1,39.0,82,30.40,10.0,NE,6.9,-,N/A,,Mostly Cloudy,40,2013-01-08 10:58:00
6:58 AM,46.0,39.9,79,30.41,10.0,NE,8.1,-,N/A,,Overcast,40,2013-01-08 11:58:00
7:58 AM,46.9,41.0,80,30.43,10.0,NE,5.8,-,N/A,,Overcast,40,2013-01-08 12:58:00
8:58 AM,50.0,43.0,77,30.43,10.0,ENE,8.1,-,N/A,,Overcast,70,2013-01-08 13:58:00
9:58 AM,51.1,44.1,77,30.45,10.0,ENE,6.9,-,N/A,,Overcast,60,2013-01-08 14:58:00
10:58 AM,52.0,45.0,77,30.44,10.0,NE,8.1,-,N/A,,Overcast,50,2013-01-08 15:58:00
11:58 AM,54.0,46.0,75,30.41,10.0,ENE,5.8,-,N/A,,Overcast,60,2013-01-08 16:58:00
12:58 PM,55.0,48.0,77,30.38,10.0,ENE,3.5,-,N/A,,Overcast,70,2013-01-08 17:58:00
1:58 PM,60.1,50.0,69,30.36,10.0,East,4.6,-,N/A,,Overcast,80,2013-01-08 18:58:00
2:58 PM,61.0,50.0,67,30.36,10.0,East,5.8,-,N/A,,Overcast,90,2013-01-08 19:58:00
3:58 PM,60.1,48.9,67,30.38,10.0,East,5.8,-,N/A,,Overcast,90,2013-01-08 20:58:00
4:58 PM,57.9,50.0,75,30.38,10.0,ENE,3.5,-,N/A,,Overcast,70,2013-01-08 21:58:00
5:58 PM,55.9,50.0,80,30.38,10.0,Calm,Calm,-,N/A,,Overcast,0,2013-01-08 22:58:00
6:58 PM,55.0,51.1,86,30.40,10.0,NE,4.6,-,N/A,,Scattered Clouds,40,2013-01-08 23:58:00
7:58 PM,51.1,48.9,92,30.40,10.0,NE,3.5,-,N/A,,Clear,40,2013-01-09 00:58:00
8:58 PM,48.9,46.9,93,30.40,8.0,Calm,Calm,-,N/A,,Clear,0,2013-01-09 01:58:00
9:58 PM,46.9,46.9,100,30.39,6.0,Calm,Calm,-,N/A,,Clear,0,2013-01-09 02:58:00
10:58 PM,46.9,46.0,97,30.39,6.0,Calm,Calm,-,N/A,,Clear,0,2013-01-09 03:58:00
11:58 PM,46.0,45.0,96,30.38,5.0,Calm,Calm,-,N/A,,Clear,0,2013-01-09 04:58:00